Year,Month,Day,Hour,Minute,Value (Times are PST for temperature in C)
2007,07,11,00,00,19.90
2007,07,11,00,01,19.90
2007,07,11,00,02,19.90
2007,07,11,00,03,19.80
2007,07,11,00,04,19.70
2007,07,11,00,05,19.60
2007,07,11,00,06,19.60
2007,07,11,00,07,19.50
2007,07,11,00,08,19.40
2007,07,11,00,09,19.40
2007,07,11,00,10,19.40
2007,07,11,00,11,19.40
2007,07,11,00,12,19.40
2007,07,11,00,13,19.40
2007,07,11,00,14,19.50
2007,07,11,00,15,19.50
2007,07,11,00,16,19.40
2007,07,11,00,17,19.50
2007,07,11,00,18,19.50
2007,07,11,00,19,19.40
2007,07,11,00,20,19.40
2007,07,11,00,21,19.40
2007,07,11,00,22,19.40
2007,07,11,00,23,19.30
2007,07,11,00,24,19.30
2007,07,11,00,25,19.30
2007,07,11,00,26,19.30
2007,07,11,00,27,19.30
2007,07,11,00,28,19.30
2007,07,11,00,29,19.30
2007,07,11,00,30,19.30
2007,07,11,00,31,19.20
2007,07,11,00,32,19.20
2007,07,11,00,33,19.10
2007,07,11,00,34,19.10
2007,07,11,00,35,19.00
2007,07,11,00,36,19.00
2007,07,11,00,37,19.00
2007,07,11,00,38,19.00
2007,07,11,00,39,18.90
2007,07,11,00,40,18.90
2007,07,11,00,41,18.90
2007,07,11,00,42,18.90
2007,07,11,00,43,18.90
2007,07,11,00,44,18.90
2007,07,11,00,45,18.90
2007,07,11,00,46,18.90
2007,07,11,00,47,18.90
2007,07,11,00,48,19.00
2007,07,11,00,49,19.00
2007,07,11,00,50,19.00
2007,07,11,00,51,19.00
2007,07,11,00,52,19.00
2007,07,11,00,53,19.00
2007,07,11,00,54,19.00
2007,07,11,00,55,19.00
2007,07,11,00,56,19.00
2007,07,11,00,57,18.90
2007,07,11,00,58,18.90
2007,07,11,00,59,18.90
2007,07,11,01,00,18.90
2007,07,11,01,01,18.90
2007,07,11,01,02,18.80
2007,07,11,01,03,18.80
2007,07,11,01,04,18.70
2007,07,11,01,05,18.70
2007,07,11,01,06,18.70
2007,07,11,01,07,18.70
2007,07,11,01,08,18.60
2007,07,11,01,09,18.60
2007,07,11,01,10,18.60
2007,07,11,01,11,18.50
2007,07,11,01,12,18.50
2007,07,11,01,13,18.50
2007,07,11,01,14,18.40
2007,07,11,01,15,18.40
2007,07,11,01,16,18.40
2007,07,11,01,17,18.40
2007,07,11,01,18,18.30
2007,07,11,01,19,18.30
2007,07,11,01,20,18.30
2007,07,11,01,21,18.30
2007,07,11,01,22,18.30
2007,07,11,01,23,18.30
2007,07,11,01,24,18.30
2007,07,11,01,25,18.30
2007,07,11,01,26,18.30
2007,07,11,01,27,18.30
2007,07,11,01,28,18.30
2007,07,11,01,29,18.30
2007,07,11,01,30,18.40
2007,07,11,01,31,18.40
2007,07,11,01,32,18.40
2007,07,11,01,33,18.40
2007,07,11,01,34,18.30
2007,07,11,01,35,18.40
2007,07,11,01,36,18.30
2007,07,11,01,37,18.30
2007,07,11,01,38,18.30
2007,07,11,01,39,18.30
2007,07,11,01,40,18.30
2007,07,11,01,41,18.20
2007,07,11,01,42,18.20
2007,07,11,01,43,18.20
2007,07,11,01,44,18.20
2007,07,11,01,45,18.10
2007,07,11,01,46,18.10
2007,07,11,01,47,18.10
2007,07,11,01,48,18.00
2007,07,11,01,49,18.00
2007,07,11,01,50,17.90
2007,07,11,01,51,17.80
2007,07,11,01,52,17.70
2007,07,11,01,53,17.70
2007,07,11,01,54,17.60
2007,07,11,01,55,17.60
2007,07,11,01,56,17.60
2007,07,11,01,57,17.50
2007,07,11,01,58,17.50
2007,07,11,01,59,17.50
2007,07,11,02,00,17.50
2007,07,11,02,01,17.50
2007,07,11,02,02,17.40
2007,07,11,02,03,17.40
2007,07,11,02,04,17.40
2007,07,11,02,05,17.40
2007,07,11,02,06,17.40
2007,07,11,02,07,17.40
2007,07,11,02,08,17.40
2007,07,11,02,09,17.30
2007,07,11,02,10,17.30
2007,07,11,02,11,17.30
2007,07,11,02,12,17.30
2007,07,11,02,13,17.30
2007,07,11,02,14,17.30
2007,07,11,02,15,17.30
2007,07,11,02,16,17.30
2007,07,11,02,17,17.30
2007,07,11,02,18,17.30
2007,07,11,02,19,17.30
2007,07,11,02,20,17.30
2007,07,11,02,21,17.30
2007,07,11,02,22,17.30
2007,07,11,02,23,17.30
2007,07,11,02,24,17.30
2007,07,11,02,25,17.30
2007,07,11,02,26,17.40
2007,07,11,02,27,17.40
2007,07,11,02,28,17.40
2007,07,11,02,29,17.40
2007,07,11,02,30,17.40
2007,07,11,02,31,17.40
2007,07,11,02,32,17.40
2007,07,11,02,33,17.40
2007,07,11,02,34,17.40
2007,07,11,02,35,17.30
2007,07,11,02,36,17.30
2007,07,11,02,37,17.30
2007,07,11,02,38,17.30
2007,07,11,02,39,17.30
2007,07,11,02,40,17.30
2007,07,11,02,41,17.30
2007,07,11,02,42,17.20
2007,07,11,02,43,17.20
2007,07,11,02,44,17.10
2007,07,11,02,45,17.10
2007,07,11,02,46,17.10
2007,07,11,02,47,17.10
2007,07,11,02,48,17.00
2007,07,11,02,49,17.00
2007,07,11,02,50,17.00
2007,07,11,02,51,17.00
2007,07,11,02,52,16.90
2007,07,11,02,53,16.90
2007,07,11,02,54,16.90
2007,07,11,02,55,16.90
2007,07,11,02,56,16.90
2007,07,11,02,57,16.90
2007,07,11,02,58,16.90
2007,07,11,02,59,16.90
2007,07,11,03,00,16.80
2007,07,11,03,01,16.80
2007,07,11,03,02,16.80
2007,07,11,03,03,16.80
2007,07,11,03,04,16.70
2007,07,11,03,05,16.70
2007,07,11,03,06,16.70
2007,07,11,03,07,16.70
2007,07,11,03,08,16.70
2007,07,11,03,09,16.60
2007,07,11,03,10,16.60
2007,07,11,03,11,16.60
2007,07,11,03,12,16.60
2007,07,11,03,13,16.60
2007,07,11,03,14,16.50
2007,07,11,03,15,16.50
2007,07,11,03,16,16.50
2007,07,11,03,17,16.50
2007,07,11,03,18,16.50
2007,07,11,03,19,16.50
2007,07,11,03,20,16.50
2007,07,11,03,21,16.50
2007,07,11,03,22,16.40
2007,07,11,03,23,16.50
2007,07,11,03,24,16.40
2007,07,11,03,25,16.40
2007,07,11,03,26,16.40
2007,07,11,03,27,16.40
2007,07,11,03,28,16.40
2007,07,11,03,29,16.40
2007,07,11,03,30,16.40
2007,07,11,03,31,16.40
2007,07,11,03,32,16.40
2007,07,11,03,33,16.30
2007,07,11,03,34,16.30
2007,07,11,03,35,16.30
2007,07,11,03,36,16.30
2007,07,11,03,37,16.30
2007,07,11,03,38,16.30
2007,07,11,03,39,16.30
2007,07,11,03,40,16.30
2007,07,11,03,41,16.30
2007,07,11,03,42,16.20
2007,07,11,03,43,16.20
2007,07,11,03,44,16.20
2007,07,11,03,45,16.20
2007,07,11,03,46,16.20
2007,07,11,03,47,16.20
2007,07,11,03,48,16.20
2007,07,11,03,49,16.20
2007,07,11,03,50,16.20
2007,07,11,03,51,16.10
2007,07,11,03,52,16.10
2007,07,11,03,53,16.10
2007,07,11,03,54,16.10
2007,07,11,03,55,16.10
2007,07,11,03,56,16.10
2007,07,11,03,57,16.10
2007,07,11,03,58,16.10
2007,07,11,03,59,16.10
2007,07,11,04,00,16.10
2007,07,11,04,01,16.10
2007,07,11,04,02,16.10
2007,07,11,04,03,16.10
2007,07,11,04,04,16.10
2007,07,11,04,05,16.10
2007,07,11,04,06,16.10
2007,07,11,04,07,16.00
2007,07,11,04,08,16.00
2007,07,11,04,09,15.90
2007,07,11,04,10,15.90
2007,07,11,04,11,15.90
2007,07,11,04,12,15.90
2007,07,11,04,13,15.90
2007,07,11,04,14,15.80
2007,07,11,04,15,15.80
2007,07,11,04,16,15.80
2007,07,11,04,17,15.80
2007,07,11,04,18,15.80
2007,07,11,04,19,15.80
2007,07,11,04,20,15.70
2007,07,11,04,21,15.70
2007,07,11,04,22,15.70
2007,07,11,04,23,15.70
2007,07,11,04,24,15.70
2007,07,11,04,25,15.70
2007,07,11,04,26,15.70
2007,07,11,04,27,15.70
2007,07,11,04,28,15.70
2007,07,11,04,29,15.70
2007,07,11,04,30,15.70
2007,07,11,04,31,15.70
2007,07,11,04,32,15.80
2007,07,11,04,33,15.80
2007,07,11,04,34,15.80
2007,07,11,04,35,15.80
2007,07,11,04,36,15.80
2007,07,11,04,37,15.80
2007,07,11,04,38,15.80
2007,07,11,04,39,15.80
2007,07,11,04,40,15.80
2007,07,11,04,41,15.80
2007,07,11,04,42,15.80
2007,07,11,04,43,15.80
2007,07,11,04,44,15.80
2007,07,11,04,45,15.70
2007,07,11,04,46,15.70
2007,07,11,04,47,15.70
2007,07,11,04,48,15.60
2007,07,11,04,49,15.60
2007,07,11,04,50,15.60
2007,07,11,04,51,15.50
2007,07,11,04,52,15.50
2007,07,11,04,53,15.50
2007,07,11,04,54,15.50
2007,07,11,04,55,15.50
2007,07,11,04,56,15.40
2007,07,11,04,57,15.50
2007,07,11,04,58,15.50
2007,07,11,04,59,15.50
2007,07,11,05,00,15.60
2007,07,11,05,01,15.60
2007,07,11,05,02,15.60
2007,07,11,05,03,15.60
2007,07,11,05,04,15.60
2007,07,11,05,05,15.60
2007,07,11,05,06,15.50
2007,07,11,05,07,15.50
2007,07,11,05,08,15.50
2007,07,11,05,09,15.50
2007,07,11,05,10,15.50
2007,07,11,05,11,15.40
2007,07,11,05,12,15.40
2007,07,11,05,13,15.40
2007,07,11,05,14,15.40
2007,07,11,05,15,15.30
2007,07,11,05,16,15.30
2007,07,11,05,17,15.30
2007,07,11,05,18,15.30
2007,07,11,05,19,15.30
2007,07,11,05,20,15.30
2007,07,11,05,21,15.20
2007,07,11,05,22,15.20
2007,07,11,05,23,15.20
2007,07,11,05,24,15.20
2007,07,11,05,25,15.20
2007,07,11,05,26,15.30
2007,07,11,05,27,15.30
2007,07,11,05,28,15.30
2007,07,11,05,29,15.30
2007,07,11,05,30,15.30
2007,07,11,05,31,15.40
2007,07,11,05,32,15.40
2007,07,11,05,33,15.40
2007,07,11,05,34,15.40
2007,07,11,05,35,15.40
2007,07,11,05,36,15.40
2007,07,11,05,37,15.30
2007,07,11,05,38,15.30
2007,07,11,05,39,15.30
2007,07,11,05,40,15.30
2007,07,11,05,41,15.30
2007,07,11,05,42,15.30
2007,07,11,05,43,15.20
2007,07,11,05,44,15.20
2007,07,11,05,45,15.20
2007,07,11,05,46,15.10
2007,07,11,05,47,15.00
2007,07,11,05,48,15.00
2007,07,11,05,49,15.00
2007,07,11,05,50,15.00
2007,07,11,05,51,15.00
2007,07,11,05,52,15.00
2007,07,11,05,53,15.00
2007,07,11,05,54,15.00
2007,07,11,05,55,15.00
2007,07,11,05,56,15.00
2007,07,11,05,57,15.00
2007,07,11,05,58,15.00
2007,07,11,05,59,15.00
2007,07,11,06,00,15.00
2007,07,11,06,01,15.00
2007,07,11,06,02,15.00
2007,07,11,06,03,15.10
2007,07,11,06,04,15.20
2007,07,11,06,05,15.20
2007,07,11,06,06,15.30
2007,07,11,06,07,15.30
2007,07,11,06,08,15.30
2007,07,11,06,09,15.30
2007,07,11,06,10,15.40
2007,07,11,06,11,15.40
2007,07,11,06,12,15.40
2007,07,11,06,13,15.50
2007,07,11,06,14,15.50
2007,07,11,06,15,15.60
2007,07,11,06,16,15.60
2007,07,11,06,17,15.60
2007,07,11,06,18,15.70
2007,07,11,06,19,15.70
2007,07,11,06,20,15.70
2007,07,11,06,21,15.70
2007,07,11,06,22,15.80
2007,07,11,06,23,15.80
2007,07,11,06,24,15.90
2007,07,11,06,25,15.90
2007,07,11,06,26,16.00
2007,07,11,06,27,16.10
2007,07,11,06,28,16.10
2007,07,11,06,29,16.20
2007,07,11,06,30,16.30
2007,07,11,06,31,16.30
2007,07,11,06,32,16.40
2007,07,11,06,33,16.40
2007,07,11,06,34,16.50
2007,07,11,06,35,16.60
2007,07,11,06,36,16.70
2007,07,11,06,37,16.70
2007,07,11,06,38,16.80
2007,07,11,06,39,16.90
2007,07,11,06,40,16.90
2007,07,11,06,41,17.00
2007,07,11,06,42,17.10
2007,07,11,06,43,17.20
2007,07,11,06,44,17.40
2007,07,11,06,45,17.50
2007,07,11,06,46,17.60
2007,07,11,06,47,17.80
2007,07,11,06,48,17.90
2007,07,11,06,49,17.90
2007,07,11,06,50,18.00
2007,07,11,06,51,18.00
2007,07,11,06,52,18.10
2007,07,11,06,53,18.10
2007,07,11,06,54,18.00
2007,07,11,06,55,18.00
2007,07,11,06,56,18.00
2007,07,11,06,57,18.10
2007,07,11,06,58,18.10
2007,07,11,06,59,18.10
2007,07,11,07,00,18.10
2007,07,11,07,01,18.20
2007,07,11,07,02,18.20
2007,07,11,07,03,18.30
2007,07,11,07,04,18.40
2007,07,11,07,05,18.50
2007,07,11,07,06,18.60
2007,07,11,07,07,18.80
2007,07,11,07,08,19.00
2007,07,11,07,09,19.10
2007,07,11,07,10,19.30
2007,07,11,07,11,19.30
2007,07,11,07,12,19.40
2007,07,11,07,13,19.50
2007,07,11,07,14,19.60
2007,07,11,07,15,19.70
2007,07,11,07,16,19.90
2007,07,11,07,17,20.00
2007,07,11,07,18,20.10
2007,07,11,07,19,20.30
2007,07,11,07,20,20.40
2007,07,11,07,21,20.50
2007,07,11,07,22,20.70
2007,07,11,07,23,20.80
2007,07,11,07,24,21.00
2007,07,11,07,25,21.10
2007,07,11,07,26,21.20
2007,07,11,07,27,21.30
2007,07,11,07,28,21.40
2007,07,11,07,29,21.50
2007,07,11,07,30,21.50
2007,07,11,07,31,21.60
2007,07,11,07,32,21.70
2007,07,11,07,33,21.80
2007,07,11,07,34,21.80
2007,07,11,07,35,21.80
2007,07,11,07,36,21.80
2007,07,11,07,37,21.90
2007,07,11,07,38,21.90
2007,07,11,07,39,22.00
2007,07,11,07,40,22.10
2007,07,11,07,41,22.10
2007,07,11,07,42,22.20
2007,07,11,07,43,22.20
2007,07,11,07,44,22.30
2007,07,11,07,45,22.30
2007,07,11,07,46,22.40
2007,07,11,07,47,22.40
2007,07,11,07,48,22.50
2007,07,11,07,49,22.50
2007,07,11,07,50,22.50
2007,07,11,07,51,22.50
2007,07,11,07,52,22.60
2007,07,11,07,53,22.50
2007,07,11,07,54,22.60
2007,07,11,07,55,22.60
2007,07,11,07,56,22.60
2007,07,11,07,57,22.60
2007,07,11,07,58,22.70
2007,07,11,07,59,22.70
2007,07,11,08,00,22.80
2007,07,11,08,01,22.90
2007,07,11,08,02,23.00
2007,07,11,08,03,23.00
2007,07,11,08,04,23.00
2007,07,11,08,05,23.10
2007,07,11,08,06,23.20
2007,07,11,08,07,23.20
2007,07,11,08,08,23.30
2007,07,11,08,09,23.30
2007,07,11,08,10,23.40
2007,07,11,08,11,23.50
2007,07,11,08,12,23.60
2007,07,11,08,13,23.70
2007,07,11,08,14,23.80
2007,07,11,08,15,23.90
2007,07,11,08,16,24.10
2007,07,11,08,17,24.20
2007,07,11,08,18,24.30
2007,07,11,08,19,24.50
2007,07,11,08,20,24.60
2007,07,11,08,21,24.70
2007,07,11,08,22,24.80
2007,07,11,08,23,24.80
2007,07,11,08,24,24.90
2007,07,11,08,25,25.00
2007,07,11,08,26,25.00
2007,07,11,08,27,25.10
2007,07,11,08,28,25.20
2007,07,11,08,29,25.30
2007,07,11,08,30,25.50
2007,07,11,08,31,25.60
2007,07,11,08,32,25.70
2007,07,11,08,33,25.70
2007,07,11,08,34,25.80
2007,07,11,08,35,25.90
2007,07,11,08,36,25.90
2007,07,11,08,37,26.10
2007,07,11,08,38,26.30
2007,07,11,08,39,26.40
2007,07,11,08,40,26.50
2007,07,11,08,41,26.50
2007,07,11,08,42,26.60
2007,07,11,08,43,26.70
2007,07,11,08,44,26.90
2007,07,11,08,45,27.00
2007,07,11,08,46,27.30
2007,07,11,08,47,27.50
2007,07,11,08,48,27.70
2007,07,11,08,49,27.90
2007,07,11,08,50,28.00
2007,07,11,08,51,28.10
2007,07,11,08,52,28.20
2007,07,11,08,53,28.30
2007,07,11,08,54,28.40
2007,07,11,08,55,28.40
2007,07,11,08,56,28.50
2007,07,11,08,57,28.50
2007,07,11,08,58,28.60
2007,07,11,08,59,28.70
2007,07,11,09,00,28.80
2007,07,11,09,01,28.80
2007,07,11,09,02,28.80
2007,07,11,09,03,28.90
2007,07,11,09,04,28.90
2007,07,11,09,05,28.90
2007,07,11,09,06,29.10
2007,07,11,09,07,29.10
2007,07,11,09,08,29.20
2007,07,11,09,09,29.30
2007,07,11,09,10,29.30
2007,07,11,09,11,29.30
2007,07,11,09,12,29.40
2007,07,11,09,13,29.40
2007,07,11,09,14,29.40
2007,07,11,09,15,29.40
2007,07,11,09,16,29.40
2007,07,11,09,17,29.40
2007,07,11,09,18,29.40
2007,07,11,09,19,29.40
2007,07,11,09,20,29.40
2007,07,11,09,21,29.40
2007,07,11,09,22,29.50
2007,07,11,09,23,29.50
2007,07,11,09,24,29.40
2007,07,11,09,25,29.40
2007,07,11,09,26,29.40
2007,07,11,09,27,29.50
2007,07,11,09,28,29.60
2007,07,11,09,29,29.70
2007,07,11,09,30,29.70
2007,07,11,09,31,29.70
2007,07,11,09,32,29.70
2007,07,11,09,33,29.70
2007,07,11,09,34,29.70
2007,07,11,09,35,29.70
2007,07,11,09,36,29.70
2007,07,11,09,37,29.70
2007,07,11,09,38,29.70
2007,07,11,09,39,29.70
2007,07,11,09,40,29.70
2007,07,11,09,41,29.80
2007,07,11,09,42,29.80
2007,07,11,09,43,29.90
2007,07,11,09,44,29.90
2007,07,11,09,45,29.90
2007,07,11,09,46,29.80
2007,07,11,09,47,29.80
2007,07,11,09,48,29.80
2007,07,11,09,49,29.80
2007,07,11,09,50,29.80
2007,07,11,09,51,29.80
2007,07,11,09,52,29.80
2007,07,11,09,53,29.80
2007,07,11,09,54,29.80
2007,07,11,09,55,29.90
2007,07,11,09,56,29.90
2007,07,11,09,57,29.90
2007,07,11,09,58,29.90
2007,07,11,09,59,29.90
2007,07,11,10,00,29.90
2007,07,11,10,01,29.90
2007,07,11,10,02,30.00
2007,07,11,10,03,30.00
2007,07,11,10,04,30.00
2007,07,11,10,05,30.10
2007,07,11,10,06,30.10
2007,07,11,10,07,30.10
2007,07,11,10,08,30.10
2007,07,11,10,09,30.00
2007,07,11,10,10,30.00
2007,07,11,10,11,30.00
2007,07,11,10,12,30.00
2007,07,11,10,13,30.00
2007,07,11,10,14,30.00
2007,07,11,10,15,29.90
2007,07,11,10,16,29.90
2007,07,11,10,17,30.00
2007,07,11,10,18,30.00
2007,07,11,10,19,30.10
2007,07,11,10,20,30.10
2007,07,11,10,21,30.10
2007,07,11,10,22,30.10
2007,07,11,10,23,30.10
2007,07,11,10,24,30.10
2007,07,11,10,25,30.10
2007,07,11,10,26,30.10
2007,07,11,10,27,30.10
2007,07,11,10,28,30.20
2007,07,11,10,29,30.20
2007,07,11,10,30,30.30
2007,07,11,10,31,30.30
2007,07,11,10,32,30.40
2007,07,11,10,33,30.40
2007,07,11,10,34,30.40
2007,07,11,10,35,30.40
2007,07,11,10,36,30.40
2007,07,11,10,37,30.40
2007,07,11,10,38,30.40
2007,07,11,10,39,30.30
2007,07,11,10,40,30.30
2007,07,11,10,41,30.30
2007,07,11,10,42,30.40
2007,07,11,10,43,30.50
2007,07,11,10,44,30.60
2007,07,11,10,45,30.50
2007,07,11,10,46,30.40
2007,07,11,10,47,30.40
2007,07,11,10,48,30.50
2007,07,11,10,49,30.40
2007,07,11,10,50,30.50
2007,07,11,10,51,30.60
2007,07,11,10,52,30.70
2007,07,11,10,53,30.80
2007,07,11,10,54,30.80
2007,07,11,10,55,30.80
2007,07,11,10,56,30.90
2007,07,11,10,57,31.00
2007,07,11,10,58,31.00
2007,07,11,10,59,31.10
2007,07,11,11,00,31.10
2007,07,11,11,01,31.30
2007,07,11,11,02,31.30
2007,07,11,11,03,31.40
2007,07,11,11,04,31.30
2007,07,11,11,05,31.30
2007,07,11,11,06,31.20
2007,07,11,11,07,31.20
2007,07,11,11,08,31.20
2007,07,11,11,09,31.20
2007,07,11,11,10,31.30
2007,07,11,11,11,31.30
2007,07,11,11,12,31.30
2007,07,11,11,13,31.30
2007,07,11,11,14,31.30
2007,07,11,11,15,31.40
2007,07,11,11,16,31.40
2007,07,11,11,17,31.50
2007,07,11,11,18,31.60
2007,07,11,11,19,31.60
2007,07,11,11,20,31.60
2007,07,11,11,21,31.60
2007,07,11,11,22,31.60
2007,07,11,11,23,31.60
2007,07,11,11,24,31.60
2007,07,11,11,25,31.60
2007,07,11,11,26,31.60
2007,07,11,11,27,31.60
2007,07,11,11,28,31.60
2007,07,11,11,29,31.60
2007,07,11,11,30,31.60
2007,07,11,11,31,31.60
2007,07,11,11,32,31.60
2007,07,11,11,33,31.50
2007,07,11,11,34,31.50
2007,07,11,11,35,31.40
2007,07,11,11,36,31.40
2007,07,11,11,37,31.40
2007,07,11,11,38,31.50
2007,07,11,11,39,31.60
2007,07,11,11,40,31.60
2007,07,11,11,41,31.60
2007,07,11,11,42,31.70
2007,07,11,11,43,31.70
2007,07,11,11,44,31.70
2007,07,11,11,45,31.70
2007,07,11,11,46,31.70
2007,07,11,11,47,31.70
2007,07,11,11,48,31.80
2007,07,11,11,49,31.80
2007,07,11,11,50,31.80
2007,07,11,11,51,31.80
2007,07,11,11,52,31.80
2007,07,11,11,53,31.80
2007,07,11,11,54,31.80
2007,07,11,11,55,31.90
2007,07,11,11,56,31.90
2007,07,11,11,57,31.90
2007,07,11,11,58,31.90
2007,07,11,11,59,31.90
2007,07,11,12,00,32.00
2007,07,11,12,01,32.10
2007,07,11,12,02,32.20
2007,07,11,12,03,32.20
2007,07,11,12,04,32.20
2007,07,11,12,05,32.20
2007,07,11,12,06,32.10
2007,07,11,12,07,32.10
2007,07,11,12,08,32.10
2007,07,11,12,09,32.10
2007,07,11,12,10,32.10
2007,07,11,12,11,32.20
2007,07,11,12,12,32.20
2007,07,11,12,13,32.20
2007,07,11,12,14,32.20
2007,07,11,12,15,32.30
2007,07,11,12,16,32.30
2007,07,11,12,17,32.30
2007,07,11,12,18,32.30
2007,07,11,12,19,32.30
2007,07,11,12,20,32.30
2007,07,11,12,21,32.30
2007,07,11,12,22,32.40
2007,07,11,12,23,32.40
2007,07,11,12,24,32.40
2007,07,11,12,25,32.30
2007,07,11,12,26,32.30
2007,07,11,12,27,32.40
2007,07,11,12,28,32.40
2007,07,11,12,29,32.50
2007,07,11,12,30,32.60
2007,07,11,12,31,32.70
2007,07,11,12,32,32.70
2007,07,11,12,33,32.80
2007,07,11,12,34,32.80
2007,07,11,12,35,32.80
2007,07,11,12,36,32.70
2007,07,11,12,37,32.70
2007,07,11,12,38,32.70
2007,07,11,12,39,32.80
2007,07,11,12,40,32.80
2007,07,11,12,41,32.70
2007,07,11,12,42,32.70
2007,07,11,12,43,32.80
2007,07,11,12,44,32.80
2007,07,11,12,45,32.80
2007,07,11,12,46,32.80
2007,07,11,12,47,32.90
2007,07,11,12,48,33.00
2007,07,11,12,49,33.10
2007,07,11,12,50,33.20
2007,07,11,12,51,33.20
2007,07,11,12,52,33.10
2007,07,11,12,53,33.10
2007,07,11,12,54,33.10
2007,07,11,12,55,33.00
2007,07,11,12,56,32.90
2007,07,11,12,57,32.90
2007,07,11,12,58,32.90
2007,07,11,12,59,33.00
2007,07,11,13,00,33.10
2007,07,11,13,01,33.10
2007,07,11,13,02,33.10
2007,07,11,13,03,33.00
2007,07,11,13,04,33.00
2007,07,11,13,05,32.90
2007,07,11,13,06,32.90
2007,07,11,13,07,32.90
2007,07,11,13,08,32.90
2007,07,11,13,09,32.80
2007,07,11,13,10,32.80
2007,07,11,13,11,32.90
2007,07,11,13,12,33.00
2007,07,11,13,13,33.00
2007,07,11,13,14,33.10
2007,07,11,13,15,33.10
2007,07,11,13,16,33.10
2007,07,11,13,17,33.10
2007,07,11,13,18,33.20
2007,07,11,13,19,33.20
2007,07,11,13,20,33.20
2007,07,11,13,21,33.30
2007,07,11,13,22,33.40
2007,07,11,13,23,33.40
2007,07,11,13,24,33.50
2007,07,11,13,25,33.50
2007,07,11,13,26,33.50
2007,07,11,13,27,33.60
2007,07,11,13,28,33.60
2007,07,11,13,29,33.60
2007,07,11,13,30,33.70
2007,07,11,13,31,33.70
2007,07,11,13,32,33.60
2007,07,11,13,33,33.50
2007,07,11,13,34,33.40
2007,07,11,13,35,33.40
2007,07,11,13,36,33.30
2007,07,11,13,37,33.30
2007,07,11,13,38,33.30
2007,07,11,13,39,33.30
2007,07,11,13,40,33.30
2007,07,11,13,41,33.30
2007,07,11,13,42,33.30
2007,07,11,13,43,33.30
2007,07,11,13,44,33.40
2007,07,11,13,45,33.50
2007,07,11,13,46,33.50
2007,07,11,13,47,33.50
2007,07,11,13,48,33.40
2007,07,11,13,49,33.40
2007,07,11,13,50,33.40
2007,07,11,13,51,33.40
2007,07,11,13,52,33.40
2007,07,11,13,53,33.40
2007,07,11,13,54,33.40
2007,07,11,13,55,33.40
2007,07,11,13,56,33.50
2007,07,11,13,57,33.60
2007,07,11,13,58,33.60
2007,07,11,13,59,33.70
2007,07,11,14,00,33.80
2007,07,11,14,01,33.90
2007,07,11,14,02,33.90
2007,07,11,14,03,34.00
2007,07,11,14,04,34.10
2007,07,11,14,05,34.10
2007,07,11,14,06,34.10
2007,07,11,14,07,34.10
2007,07,11,14,08,34.00
2007,07,11,14,09,34.00
2007,07,11,14,10,33.90
2007,07,11,14,11,33.90
2007,07,11,14,12,33.90
2007,07,11,14,13,34.00
2007,07,11,14,14,33.90
2007,07,11,14,15,33.90
2007,07,11,14,16,34.00
2007,07,11,14,17,34.10
2007,07,11,14,18,34.10
2007,07,11,14,19,34.20
2007,07,11,14,20,34.30
2007,07,11,14,21,34.20
2007,07,11,14,22,34.20
2007,07,11,14,23,34.30
2007,07,11,14,24,34.30
2007,07,11,14,25,34.30
2007,07,11,14,26,34.30
2007,07,11,14,27,34.30
2007,07,11,14,28,34.20
2007,07,11,14,29,34.20
2007,07,11,14,30,34.20
2007,07,11,14,31,34.20
2007,07,11,14,32,34.20
2007,07,11,14,33,34.30
2007,07,11,14,34,34.40
2007,07,11,14,35,34.40
2007,07,11,14,36,34.50
2007,07,11,14,37,34.70
2007,07,11,14,38,34.80
2007,07,11,14,39,34.90
2007,07,11,14,40,34.90
2007,07,11,14,41,35.00
2007,07,11,14,42,35.10
2007,07,11,14,43,35.10
2007,07,11,14,44,35.10
2007,07,11,14,45,35.00
2007,07,11,14,46,34.90
2007,07,11,14,47,34.90
2007,07,11,14,48,34.90
2007,07,11,14,49,34.80
2007,07,11,14,50,34.80
2007,07,11,14,51,34.80
2007,07,11,14,52,34.80
2007,07,11,14,53,34.80
2007,07,11,14,54,34.80
2007,07,11,14,55,34.90
2007,07,11,14,56,34.90
2007,07,11,14,57,34.90
2007,07,11,14,58,34.90
2007,07,11,14,59,34.80
2007,07,11,15,00,34.70
2007,07,11,15,01,34.60
2007,07,11,15,02,34.60
2007,07,11,15,03,34.60
2007,07,11,15,04,34.70
2007,07,11,15,05,34.80
2007,07,11,15,06,34.90
2007,07,11,15,07,34.90
2007,07,11,15,08,34.90
2007,07,11,15,09,34.90
2007,07,11,15,10,35.00
2007,07,11,15,11,34.90
2007,07,11,15,12,35.00
2007,07,11,15,13,35.10
2007,07,11,15,14,35.20
2007,07,11,15,15,35.20
2007,07,11,15,16,35.20
2007,07,11,15,17,35.20
2007,07,11,15,18,35.30
2007,07,11,15,19,35.40
2007,07,11,15,20,35.40
2007,07,11,15,21,35.40
2007,07,11,15,22,35.30
2007,07,11,15,23,35.30
2007,07,11,15,24,35.30
2007,07,11,15,25,35.40
2007,07,11,15,26,35.40
2007,07,11,15,27,35.40
2007,07,11,15,28,35.50
2007,07,11,15,29,35.50
2007,07,11,15,30,35.40
2007,07,11,15,31,35.40
2007,07,11,15,32,35.40
2007,07,11,15,33,35.40
2007,07,11,15,34,35.40
2007,07,11,15,35,35.30
2007,07,11,15,36,35.30
2007,07,11,15,37,35.20
2007,07,11,15,38,35.30
2007,07,11,15,39,35.30
2007,07,11,15,40,35.30
2007,07,11,15,41,35.30
2007,07,11,15,42,35.20
2007,07,11,15,43,35.10
2007,07,11,15,44,35.10
2007,07,11,15,45,35.00
2007,07,11,15,46,35.00
2007,07,11,15,47,34.90
2007,07,11,15,48,34.90
2007,07,11,15,49,34.90
2007,07,11,15,50,35.00
2007,07,11,15,51,35.10
2007,07,11,15,52,35.10
2007,07,11,15,53,35.20
2007,07,11,15,54,35.10
2007,07,11,15,55,35.10
2007,07,11,15,56,35.20
2007,07,11,15,57,35.20
2007,07,11,15,58,35.10
2007,07,11,15,59,35.10
2007,07,11,16,00,35.20
2007,07,11,16,01,35.30
2007,07,11,16,02,35.20
2007,07,11,16,03,35.30
2007,07,11,16,04,35.30
2007,07,11,16,05,35.30
2007,07,11,16,06,35.30
2007,07,11,16,07,35.30
2007,07,11,16,08,35.20
2007,07,11,16,09,35.20
2007,07,11,16,10,35.20
2007,07,11,16,11,35.20
2007,07,11,16,12,35.30
2007,07,11,16,13,35.30
2007,07,11,16,14,35.30
2007,07,11,16,15,35.30
2007,07,11,16,16,35.30
2007,07,11,16,17,35.20
2007,07,11,16,18,35.20
2007,07,11,16,19,35.20
2007,07,11,16,20,35.20
2007,07,11,16,21,35.20
2007,07,11,16,22,35.20
2007,07,11,16,23,35.20
2007,07,11,16,24,35.20
2007,07,11,16,25,35.20
2007,07,11,16,26,35.20
2007,07,11,16,27,35.20
2007,07,11,16,28,35.20
2007,07,11,16,29,35.30
2007,07,11,16,30,35.30
2007,07,11,16,31,35.30
2007,07,11,16,32,35.30
2007,07,11,16,33,35.30
2007,07,11,16,34,35.30
2007,07,11,16,35,35.30
2007,07,11,16,36,35.50
2007,07,11,16,37,35.60
2007,07,11,16,38,35.60
2007,07,11,16,39,35.70
2007,07,11,16,40,35.80
2007,07,11,16,41,35.90
2007,07,11,16,42,35.90
2007,07,11,16,43,35.80
2007,07,11,16,44,35.80
2007,07,11,16,45,35.80
2007,07,11,16,46,35.80
2007,07,11,16,47,35.80
2007,07,11,16,48,35.80
2007,07,11,16,49,35.90
2007,07,11,16,50,35.90
2007,07,11,16,51,36.00
2007,07,11,16,52,36.00
2007,07,11,16,53,36.00
2007,07,11,16,54,36.00
2007,07,11,16,55,36.00
2007,07,11,16,56,36.10
2007,07,11,16,57,36.10
2007,07,11,16,58,36.00
2007,07,11,16,59,36.00
2007,07,11,17,00,36.00
2007,07,11,17,01,36.00
2007,07,11,17,02,35.90
2007,07,11,17,03,35.80
2007,07,11,17,04,35.80
2007,07,11,17,05,35.80
2007,07,11,17,06,35.80
2007,07,11,17,07,35.90
2007,07,11,17,08,35.90
2007,07,11,17,09,35.90
2007,07,11,17,10,35.90
2007,07,11,17,11,35.80
2007,07,11,17,12,35.80
2007,07,11,17,13,35.70
2007,07,11,17,14,35.60
2007,07,11,17,15,35.60
2007,07,11,17,16,35.60
2007,07,11,17,17,35.60
2007,07,11,17,18,35.60
2007,07,11,17,19,35.60